Weather in Dubyany

Russia / Kostroma Oblast     58°04′33″N   42°20′26″E
temp.,
°C
wind,
m/s
gust,
m/s
humid.,
%
clouds,
%
prec.,
mm/h
press.,
hPa
HPBL,
m
27 september, mon
mon2700:00+7n3996100 0.1 1015436
03:00+8n499599 0.2 1016529
06:00+8nne41093100 0.1 1018738
09:00+8nne41090100 0.1 1019799
12:00+8nne4991100 0.1 1021855
15:00+8nne4890100 0.1 10221071
18:00+7ne4890100 0.3 10241030
21:00+6ene4108793 0.4 1027911
28 september, tue
tue2800:00+5ne398682 0.0 1028630
03:00+3ne399614 0.0 1030352
06:00+1ne28978 0.0 1031223
09:00+5ene357547 0.0 1032422
12:00+9ne245324 0.0 1032865
15:00+10nne344758 0.0 10321107
18:00+5nne227147 0.0 103325
21:00+4nne22805 0.0 103429
29 september, wed
wed2900:00+3n22864 0.0 103522
03:00+2n22915 0.0 103537
06:00+1n239419 0.0 103555
09:00+6n1380100 0.0 1035166
12:00+10n236145 0.0 1035996
15:00+11n2360100 0.0 10341221
18:00+9n226995 0.0 103436
21:00+8n1182100 0.0 103428
30 september, thu
thu3000:00+8nnw118496 0.0 103429
03:00+8wnw128698 0.0 103454
06:00+7nw239267 0.0 103492
09:00+10nnw238112 0.0 1034297
12:00+13nw226636 0.0 1034833
15:00+13nw237097 0.0 1033784
18:00+11wnw258197 0.0 1033112
21:00+9nw24925 0.0 103373
1 october, fri
fri100:00+8nw249656 0.0 103385
03:00+7nw259750 0.0 1034102
06:00+6nw269712 0.0 1034126
09:00+10nw35825 0.0 1034302
12:00+14nw346619 0.0 1033797
15:00+14wnw346482 0.0 10331077
18:00+12wnw2372100 0.0 103381
21:00+11w2380100 0.0 103392